TimeEDT,TemperatureF,Dew PointF,Humidity,Sea Level PressureIn,VisibilityMPH,Wind Direction,Wind SpeedMPH,Gust SpeedMPH,PrecipitationIn,Events,Conditions,WindDirDegrees,DateUTC
12:56 AM,45.0,30.0,56,29.86,10.0,WSW,4.6,-,N/A,,Clear,240,2013-05-13 04:56:00
1:56 AM,44.1,30.0,58,29.87,10.0,WSW,3.5,-,N/A,,Clear,240,2013-05-13 05:56:00
2:56 AM,42.1,30.9,65,29.88,10.0,SW,5.8,-,N/A,,Clear,230,2013-05-13 06:56:00
3:56 AM,41.0,30.9,67,29.89,10.0,WSW,3.5,-,N/A,,Clear,250,2013-05-13 07:56:00
4:56 AM,41.0,28.9,62,29.92,10.0,SW,4.6,-,N/A,,Clear,230,2013-05-13 08:56:00
5:56 AM,39.0,28.9,67,29.94,10.0,Calm,Calm,-,N/A,,Clear,0,2013-05-13 09:56:00
6:56 AM,44.1,30.9,60,29.96,10.0,WSW,5.8,-,N/A,,Clear,250,2013-05-13 10:56:00
7:56 AM,48.0,30.0,50,29.96,10.0,SW,12.7,20.7,N/A,,Clear,230,2013-05-13 11:56:00
8:56 AM,50.0,28.9,44,29.97,10.0,WSW,9.2,24.2,N/A,,Partly Cloudy,250,2013-05-13 12:56:00
9:56 AM,50.0,28.0,43,29.99,10.0,WSW,13.8,-,N/A,,Scattered Clouds,250,2013-05-13 13:56:00
10:56 AM,52.0,28.0,40,29.99,10.0,West,16.1,25.3,N/A,,Scattered Clouds,270,2013-05-13 14:56:00
11:06 AM,51.8,28.4,41,29.95,10.0,WNW,12.7,25.3,N/A,,Partly Cloudy,290,2013-05-13 15:06:00
11:56 AM,54.0,28.0,37,30.00,10.0,West,10.4,21.9,N/A,,Partly Cloudy,260,2013-05-13 15:56:00
12:56 PM,54.0,27.0,35,29.99,10.0,West,17.3,21.9,N/A,,Partly Cloudy,260,2013-05-13 16:56:00
1:56 PM,57.0,30.0,36,29.99,10.0,WSW,10.4,-,N/A,,Scattered Clouds,250,2013-05-13 17:56:00
2:56 PM,55.9,28.0,34,29.98,10.0,West,11.5,20.7,N/A,,Mostly Cloudy,270,2013-05-13 18:56:00
4:56 PM,55.0,27.0,34,29.97,10.0,WNW,16.1,20.7,N/A,,Partly Cloudy,300,2013-05-13 20:56:00
5:56 PM,54.0,25.0,33,29.98,10.0,WNW,11.5,-,N/A,,Clear,300,2013-05-13 21:56:00
6:56 PM,51.1,25.0,36,29.99,10.0,NW,11.5,20.7,N/A,,Clear,310,2013-05-13 22:56:00
7:56 PM,46.9,24.1,41,30.02,10.0,NW,8.1,-,N/A,,Scattered Clouds,310,2013-05-13 23:56:00
8:56 PM,44.1,26.1,49,30.04,10.0,WNW,6.9,-,N/A,,Partly Cloudy,300,2013-05-14 00:56:00
9:56 PM,42.1,28.0,58,30.06,10.0,Calm,Calm,-,N/A,,Clear,0,2013-05-14 01:56:00
10:56 PM,37.9,28.9,70,30.06,10.0,Calm,Calm,-,N/A,,Scattered Clouds,0,2013-05-14 02:56:00
11:56 PM,39.9,30.0,68,30.06,10.0,Calm,Calm,-,N/A,,Overcast,0,2013-05-14 03:56:00